Location: ?????????
(54.7630°N, 39.4991°E)
Time: 10:39:55
(UTC+00:00)

Sich 1 Rocket - Pass Details

Date: 14 April 2026
Orbit: 610 x 646 km, 82.5° (Epoch: 10 May)

Event Time Altitude Azimuth Distance (km) Brightness Sun altitude
Exits shadow 22:02:16 39° 289° (WNW) 938 4.4 -25.0°
Maximum altitude 22:02:17 39° 290° (WNW) 938 4.5 -25.0°
Drops below altitude 10° 22:06:27 10° 360° (N) 1,995 7.2 -24.9°
Sets 22:08:48 0° 8° (N) 2,901 8.4 -24.8°
